owner,sensor,date,latitude,longitude,vertical_datum,wind_speed,wind_to_direction,wind_speed_of_gust,qcFlag 
TABS,ioos:station:wmo:42043:1,2010-03-01T00:00:00Z,28.9818,-94.9186,4.0,6.444261013,126.3545499,7.9,'11111222,11111222,11111222' 
TABS,ioos:station:wmo:42043:1,2010-03-01T00:30:00Z,28.9818,-94.9186,4.0,6.079909539,124.3438444,7.7,'11111222,11111222,11111222' 
TABS,ioos:station:wmo:42043:1,2010-03-01T01:00:00Z,28.9818,-94.9186,4.0,6.827195618,131.7941593,8.32,'11111222,11111222,11111222' 
TABS,ioos:station:wmo:42043:1,2010-03-01T01:30:00Z,28.9818,-94.9186,4.0,6.71201907,127.0068129,8.57,'11111222,11111222,11111222' 
TABS,ioos:station:wmo:42043:1,2010-03-01T02:00:00Z,28.9818,-94.9186,4.0,6.335503137,125.6221192,7.7,'11111222,11111222,11111222' 
TABS,ioos:station:wmo:42043:1,2010-03-01T02:30:00Z,28.9818,-94.9186,4.0,6.711929678,123.4536521,8.6,'11111222,11111222,11111222' 
TABS,ioos:station:wmo:42043:1,2010-03-01T03:00:00Z,28.9818,-94.9186,4.0,6.958807369,125.9974429,8.45,'11111222,11111222,11111222' 
TABS,ioos:station:wmo:42043:1,2010-03-01T03:30:00Z,28.9818,-94.9186,4.0,6.388340943,121.1025372,8.14,'11111222,11111222,11111222' 
TABS,ioos:station:wmo:42043:1,2010-03-01T04:00:00Z,28.9818,-94.9186,4.0,6.142255286,119.9882055,7.41,'11111222,11111222,11111222' 
TABS,ioos:station:wmo:42043:1,2010-03-01T04:30:00Z,28.9818,-94.9186,4.0,5.677552289,123.2145896,6.75,'11111222,11111222,11111222' 
TABS,ioos:station:wmo:42043:1,2010-03-01T05:00:00Z,28.9818,-94.9186,4.0,7.19847206,134.6626242,8.73,'11111222,11111222,11111222' 
TABS,ioos:station:wmo:42043:1,2010-03-01T05:30:00Z,28.9818,-94.9186,4.0,6.428187925,128.9385411,7.91,'11111222,11111222,11111222' 
TABS,ioos:station:wmo:42043:1,2010-03-01T06:00:00Z,28.9818,-94.9186,4.0,5.585704969,116.4736636,6.86,'11111222,11111222,11111222' 
TABS,ioos:station:wmo:42043:1,2010-03-01T06:30:00Z,28.9818,-94.9186,4.0,3.53276096,97.80939512,4.77,'11111222,11111222,11111222' 
TABS,ioos:station:wmo:42043:1,2010-03-01T07:00:00Z,28.9818,-94.9186,4.0,2.380273094,39.37378618,3.29,'11111222,11111222,11111222' 
TABS,ioos:station:wmo:42043:1,2010-03-01T07:30:00Z,28.9818,-94.9186,4.0,4.320474511,45.28100273,5.82,'11111222,11111222,11111222' 
TABS,ioos:station:wmo:42043:1,2010-03-01T08:00:00Z,28.9818,-94.9186,4.0,3.984331813,47.33905816,5.13,'11111222,11111222,11111222' 
TABS,ioos:station:wmo:42043:1,2010-03-01T08:30:00Z,28.9818,-94.9186,4.0,5.402684518,77.27525315,6.56,'11111222,11111222,11111222' 
TABS,ioos:station:wmo:42043:1,2010-03-01T09:00:00Z,28.9818,-94.9186,4.0,7.537592454,82.9122925,9.5,'11111222,11111222,11111222' 
TABS,ioos:station:wmo:42043:1,2010-03-01T09:30:00Z,28.9818,-94.9186,4.0,8.752062614,88.75564055,10.39,'11111222,11111222,11111222' 
TABS,ioos:station:wmo:42043:1,2010-03-01T10:00:00Z,28.9818,-94.9186,4.0,8.957611289,95.25274714,10.84,'11111222,11111222,11111222' 
TABS,ioos:station:wmo:42043:1,2010-03-01T10:30:00Z,28.9818,-94.9186,4.0,9.537971482,96.32069661,12.07,'11111222,11111222,11111222' 
TABS,ioos:station:wmo:42043:1,2010-03-01T11:00:00Z,28.9818,-94.9186,4.0,9.978416708,101.4454579,12.35,'11111222,11111222,11111222' 
TABS,ioos:station:wmo:42043:1,2010-03-01T11:30:00Z,28.9818,-94.9186,4.0,9.862190426,107.222707,12.44,'11111222,11111222,11111222' 
TABS,ioos:station:wmo:42043:1,2010-03-01T12:00:00Z,28.9818,-94.9186,4.0,8.97313769,111.3037752,10.76,'11111222,11111222,11111222' 
TABS,ioos:station:wmo:42043:1,2010-03-01T12:30:00Z,28.9818,-94.9186,4.0,8.842680589,113.8115395,11.4,'11111222,11111222,11111222' 
TABS,ioos:station:wmo:42043:1,2010-03-01T13:00:00Z,28.9818,-94.9186,4.0,8.323875299,124.3776953,10.74,'11111222,11111222,11111222' 
TABS,ioos:station:wmo:42043:1,2010-03-01T13:30:00Z,28.9818,-94.9186,4.0,6.240016026,130.7111724,7.92,'11111222,11111222,11111222' 
TABS,ioos:station:wmo:42043:1,2010-03-01T14:00:00Z,28.9818,-94.9186,4.0,4.841487375,141.7101368,7.26,'11111222,11111222,11111222' 
TABS,ioos:station:wmo:42043:1,2010-03-01T14:30:00Z,28.9818,-94.9186,4.0,5.45475939,147.8835621,7.03,'11111222,11111222,11111222' 
TABS,ioos:station:wmo:42043:1,2010-03-01T15:00:00Z,28.9818,-94.9186,4.0,7.268700021,173.3640696,9.98,'11111222,11111222,11111222' 
TABS,ioos:station:wmo:42043:1,2010-03-01T15:30:00Z,28.9818,-94.9186,4.0,5.515224383,163.5696699,7.69,'11111222,11111222,11111222' 
TABS,ioos:station:wmo:42043:1,2010-03-01T16:00:00Z,28.9818,-94.9186,4.0,5.65128304,184.974331,7.99,'11111222,11111222,11111222' 
TABS,ioos:station:wmo:42043:1,2010-03-01T16:30:00Z,28.9818,-94.9186,4.0,5.187137939,228.7518255,6.9,'11111222,11111222,11111222' 
TABS,ioos:station:wmo:42043:1,2010-03-01T17:00:00Z,28.9818,-94.9186,4.0,5.634252391,277.9575066,8.52,'11111222,11111222,11111222' 
TABS,ioos:station:wmo:42043:1,2010-03-01T17:30:00Z,28.9818,-94.9186,4.0,7.184184018,328.7215228,9.25,'11111222,11111222,11111222' 
TABS,ioos:station:wmo:42043:1,2010-03-01T18:00:00Z,28.9818,-94.9186,4.0,7.096153888,341.5138182,9.77,'11111222,11111222,11111222' 
TABS,ioos:station:wmo:42043:1,2010-03-01T18:30:00Z,28.9818,-94.9186,4.0,7.880215733,345.5227162,10.22,'11111222,11111222,11111222' 
TABS,ioos:station:wmo:42043:1,2010-03-01T19:00:00Z,28.9818,-94.9186,4.0,7.194025299,7.026003731,9.9,'11111222,11111222,11111222' 
TABS,ioos:station:wmo:42043:1,2010-03-01T19:30:00Z,28.9818,-94.9186,4.0,7.359653524,13.03522221,9.73,'11111222,11111222,11111222' 
TABS,ioos:station:wmo:42043:1,2010-03-01T20:00:00Z,28.9818,-94.9186,4.0,7.361854386,16.73626745,9.97,'11111222,11111222,11111222' 
TABS,ioos:station:wmo:42043:1,2010-03-01T20:30:00Z,28.9818,-94.9186,4.0,6.813530656,19.81760843,8.7,'11111222,11111222,11111222' 
TABS,ioos:station:wmo:42043:1,2010-03-01T21:00:00Z,28.9818,-94.9186,4.0,6.774636522,22.47647663,8.36,'11111222,11111222,11111222' 
TABS,ioos:station:wmo:42043:1,2010-03-01T21:30:00Z,28.9818,-94.9186,4.0,7.374991525,33.21573713,9.84,'11111222,11111222,11111222' 
TABS,ioos:station:wmo:42043:1,2010-03-01T22:00:00Z,28.9818,-94.9186,4.0,7.30600438,36.93233913,9.9,'11111222,11111222,11111222' 
TABS,ioos:station:wmo:42043:1,2010-03-01T22:30:00Z,28.9818,-94.9186,4.0,7.229412148,28.05356294,9.73,'11111222,11111222,11111222' 
TABS,ioos:station:wmo:42043:1,2010-03-01T23:00:00Z,28.9818,-94.9186,4.0,6.376401807,47.35123639,8.26,'11111222,11111222,11111222' 
TABS,ioos:station:wmo:42043:1,2010-03-01T23:30:00Z,28.9818,-94.9186,4.0,5.262176356,32.66297629,6.59,'11111222,11111222,11111222' 
TABS,ioos:station:wmo:42043:1,2010-03-02T00:00:00Z,28.9818,-94.9186,4.0,5.251475983,31.44996974,6.71,'11111222,11111222,11111222' 
TABS,ioos:station:wmo:42043:1,2010-03-02T00:30:00Z,28.9818,-94.9186,4.0,4.535416188,39.09355701,6.33,'11111222,11111222,11111222' 
TABS,ioos:station:wmo:42043:1,2010-03-02T01:00:00Z,28.9818,-94.9186,4.0,3.263525701,18.76780572,5.24,'11111222,11111222,11111222' 
TABS,ioos:station:wmo:42043:1,2010-03-02T01:30:00Z,28.9818,-94.9186,4.0,3.740013369,359.846593,5.0,'11111222,11144222,11111222' 
TABS,ioos:station:wmo:42043:1,2010-03-02T02:00:00Z,28.9818,-94.9186,4.0,4.840092974,359.6446558,6.37,'11111222,11144222,11111222' 
TABS,ioos:station:wmo:42043:1,2010-03-02T02:30:00Z,28.9818,-94.9186,4.0,6.3953186,353.1748225,8.45,'11111222,11111222,11111222' 
TABS,ioos:station:wmo:42043:1,2010-03-02T03:00:00Z,28.9818,-94.9186,4.0,8.990717435,356.1094199,11.32,'11111222,11111222,11111222' 
TABS,ioos:station:wmo:42043:1,2010-03-02T03:30:00Z,28.9818,-94.9186,4.0,11.1962717,348.7199916,13.98,'11111222,11111222,11111222' 
TABS,ioos:station:wmo:42043:1,2010-03-02T04:00:00Z,28.9818,-94.9186,4.0,10.20519966,354.0378167,12.93,'11111222,11111222,11111222' 
TABS,ioos:station:wmo:42043:1,2010-03-02T04:30:00Z,28.9818,-94.9186,4.0,9.854389885,340.8661911,12.68,'11111222,11111222,11111222' 
TABS,ioos:station:wmo:42043:1,2010-03-02T05:00:00Z,28.9818,-94.9186,4.0,9.723790413,339.5334461,12.56,'11111222,11111222,11111222' 
TABS,ioos:station:wmo:42043:1,2010-03-02T05:30:00Z,28.9818,-94.9186,4.0,10.02161664,340.046037,12.97,'11111222,11111222,11111222' 
TABS,ioos:station:wmo:42043:1,2010-03-02T06:00:00Z,28.9818,-94.9186,4.0,10.56219674,341.9079674,13.63,'11111222,11111222,11111222' 
TABS,ioos:station:wmo:42043:1,2010-03-02T06:30:00Z,28.9818,-94.9186,4.0,10.6671927,334.2755567,13.95,'11111222,11111222,11111222' 
TABS,ioos:station:wmo:42043:1,2010-03-02T07:00:00Z,28.9818,-94.9186,4.0,10.6184933,346.382361,14.51,'11111222,11111222,11111222' 
TABS,ioos:station:wmo:42043:1,2010-03-02T07:30:00Z,28.9818,-94.9186,4.0,11.1883198,352.3983958,14.36,'11111222,11111222,11111222' 
TABS,ioos:station:wmo:42043:1,2010-03-02T08:00:00Z,28.9818,-94.9186,4.0,10.46554824,345.6714599,13.19,'11111222,11111222,11111222' 
TABS,ioos:station:wmo:42043:1,2010-03-02T08:30:00Z,28.9818,-94.9186,4.0,10.83406664,343.5386606,13.64,'11111222,11111222,11111222' 
TABS,ioos:station:wmo:42043:1,2010-03-02T09:00:00Z,28.9818,-94.9186,4.0,11.55588595,347.4548776,15.34,'11111222,11111222,11111222' 
TABS,ioos:station:wmo:42043:1,2010-03-02T09:30:00Z,28.9818,-94.9186,4.0,10.69252543,340.8362296,13.75,'11111222,11111222,11111222' 
TABS,ioos:station:wmo:42043:1,2010-03-02T10:00:00Z,28.9818,-94.9186,4.0,10.3100582,343.1994495,12.79,'11111222,11111222,11111222' 
TABS,ioos:station:wmo:42043:1,2010-03-02T10:30:00Z,28.9818,-94.9186,4.0,9.923960903,349.2560276,13.27,'11111222,11111222,11111222' 
TABS,ioos:station:wmo:42043:1,2010-03-02T11:00:00Z,28.9818,-94.9186,4.0,9.500410517,340.7638651,12.38,'11111222,11111222,11111222' 
TABS,ioos:station:wmo:42043:1,2010-03-02T11:30:00Z,28.9818,-94.9186,4.0,10.37206344,336.4748479,13.53,'11111222,11111222,11111222' 
TABS,ioos:station:wmo:42043:1,2010-03-02T12:00:00Z,28.9818,-94.9186,4.0,9.152994046,343.3665379,12.06,'11111222,11111222,11111222' 
TABS,ioos:station:wmo:42043:1,2010-03-02T12:30:00Z,28.9818,-94.9186,4.0,10.67299864,339.544322,14.68,'11111222,11111222,11111222' 
TABS,ioos:station:wmo:42043:1,2010-03-02T13:00:00Z,28.9818,-94.9186,4.0,10.41998081,345.3234307,13.17,'11111222,11111222,11111222' 
TABS,ioos:station:wmo:42043:1,2010-03-02T13:30:00Z,28.9818,-94.9186,4.0,9.197200661,331.2054388,11.48,'11111222,11111222,11111222' 
TABS,ioos:station:wmo:42043:1,2010-03-02T14:00:00Z,28.9818,-94.9186,4.0,8.488774941,335.427414,10.86,'11111222,11111222,11111222' 
TABS,ioos:station:wmo:42043:1,2010-03-02T14:30:00Z,28.9818,-94.9186,4.0,8.979632509,325.1594404,11.31,'11111222,11111222,11111222' 
TABS,ioos:station:wmo:42043:1,2010-03-02T15:00:00Z,28.9818,-94.9186,4.0,8.854157216,331.7560756,11.05,'11111222,11111222,11111222' 
TABS,ioos:station:wmo:42043:1,2010-03-02T15:30:00Z,28.9818,-94.9186,4.0,7.943500488,326.7099036,10.96,'11111222,11111222,11111222' 
TABS,ioos:station:wmo:42043:1,2010-03-02T16:00:00Z,28.9818,-94.9186,4.0,8.460851021,323.9426278,10.54,'11111222,11111222,11111222' 
TABS,ioos:station:wmo:42043:1,2010-03-02T16:30:00Z,28.9818,-94.9186,4.0,7.851636772,328.4353867,10.4,'11111222,11111222,11111222' 
TABS,ioos:station:wmo:42043:1,2010-03-02T17:00:00Z,28.9818,-94.9186,4.0,6.929184656,325.346554,8.86,'11111222,11111222,11111222' 
TABS,ioos:station:wmo:42043:1,2010-03-02T17:30:00Z,28.9818,-94.9186,4.0,6.195885732,309.3673921,8.75,'11111222,11111222,11111222' 
TABS,ioos:station:wmo:42043:1,2010-03-02T18:00:00Z,28.9818,-94.9186,4.0,6.452301915,301.6946894,9.0,'11111222,11111222,11111222' 
TABS,ioos:station:wmo:42043:1,2010-03-02T18:30:00Z,28.9818,-94.9186,4.0,7.339434583,297.3330748,8.96,'11111222,11111222,11111222' 
TABS,ioos:station:wmo:42043:1,2010-03-02T19:00:00Z,28.9818,-94.9186,4.0,7.307701417,300.6006328,9.4,'11111222,11111222,11111222' 
TABS,ioos:station:wmo:42043:1,2010-03-02T19:30:00Z,28.9818,-94.9186,4.0,7.39495098,299.7544219,9.52,'11111222,11111222,11111222' 
TABS,ioos:station:wmo:42043:1,2010-03-02T20:00:00Z,28.9818,-94.9186,4.0,7.385309743,300.2451977,9.0,'11111222,11111222,11111222' 
TABS,ioos:station:wmo:42043:1,2010-03-02T20:30:00Z,28.9818,-94.9186,4.0,7.231742529,302.6351823,8.98,'11111222,11111222,11111222' 
TABS,ioos:station:wmo:42043:1,2010-03-02T21:00:00Z,28.9818,-94.9186,4.0,6.833227641,305.1087139,8.84,'11111222,11111222,11111222' 
TABS,ioos:station:wmo:42043:1,2010-03-02T21:30:00Z,28.9818,-94.9186,4.0,7.492909982,310.9412538,9.38,'11111222,11111222,11111222' 
TABS,ioos:station:wmo:42043:1,2010-03-02T22:00:00Z,28.9818,-94.9186,4.0,6.313517245,309.6660446,8.14,'11111222,11111222,11111222' 
TABS,ioos:station:wmo:42043:1,2010-03-02T22:30:00Z,28.9818,-94.9186,4.0,6.991916762,308.7876954,8.96,'11111222,11111222,11111222' 
TABS,ioos:station:wmo:42043:1,2010-03-02T23:00:00Z,28.9818,-94.9186,4.0,7.239254105,304.3046311,8.86,'11111222,11111222,11111222' 
TABS,ioos:station:wmo:42043:1,2010-03-02T23:30:00Z,28.9818,-94.9186,4.0,6.864000291,306.886506,8.83,'11111222,11111222,11111222' 
TABS,ioos:station:wmo:42043:1,2010-03-03T00:00:00Z,28.9818,-94.9186,4.0,7.069179585,305.1512954,8.57,'11111222,11111222,11111222' 
TABS,ioos:station:wmo:42043:1,2010-03-03T00:30:00Z,28.9818,-94.9186,4.0,7.141498442,301.4865405,9.04,'11111222,11111222,11111222' 
TABS,ioos:station:wmo:42043:1,2010-03-03T01:00:00Z,28.9818,-94.9186,4.0,6.901594019,300.2802695,8.42,'11111222,11111222,11111222' 
TABS,ioos:station:wmo:42043:1,2010-03-03T01:30:00Z,28.9818,-94.9186,4.0,6.303499028,299.9815693,8.0,'11111222,11111222,11111222' 
TABS,ioos:station:wmo:42043:1,2010-03-03T02:00:00Z,28.9818,-94.9186,4.0,6.652352967,298.0673549,8.32,'11111222,11111222,11111222' 
TABS,ioos:station:wmo:42043:1,2010-03-03T02:30:00Z,28.9818,-94.9186,4.0,7.043472155,305.6983512,8.68,'11111222,11111222,11111222' 
TABS,ioos:station:wmo:42043:1,2010-03-03T03:00:00Z,28.9818,-94.9186,4.0,6.944011809,312.3734953,8.97,'11111222,11111222,11111222' 
TABS,ioos:station:wmo:42043:1,2010-03-03T03:30:00Z,28.9818,-94.9186,4.0,5.940117844,315.6819536,7.42,'11111222,11111222,11111222' 
TABS,ioos:station:wmo:42043:1,2010-03-03T04:00:00Z,28.9818,-94.9186,4.0,5.560656436,320.3262377,6.88,'11111222,11111222,11111222' 
TABS,ioos:station:wmo:42043:1,2010-03-03T04:30:00Z,28.9818,-94.9186,4.0,5.442949568,319.8438838,6.78,'11111222,11111222,11111222' 
TABS,ioos:station:wmo:42043:1,2010-03-03T05:00:00Z,28.9818,-94.9186,4.0,5.241230771,321.118129,6.34,'11111222,11111222,11111222' 
TABS,ioos:station:wmo:42043:1,2010-03-03T05:30:00Z,28.9818,-94.9186,4.0,4.968832861,332.8159697,6.04,'11111222,11111222,11111222' 
TABS,ioos:station:wmo:42043:1,2010-03-03T06:00:00Z,28.9818,-94.9186,4.0,5.489845171,341.9609304,6.6,'11111222,11111222,11111222' 
TABS,ioos:station:wmo:42043:1,2010-03-03T06:30:00Z,28.9818,-94.9186,4.0,5.371415084,356.2637734,6.82,'11111222,11111222,11111222' 
TABS,ioos:station:wmo:42043:1,2010-03-03T07:00:00Z,28.9818,-94.9186,4.0,5.156937075,16.67771105,6.26,'11111222,11111222,11111222' 
TABS,ioos:station:wmo:42043:1,2010-03-03T07:30:00Z,28.9818,-94.9186,4.0,4.65188134,27.66648214,5.6,'11111222,11111222,11111222' 
TABS,ioos:station:wmo:42043:1,2010-03-03T08:00:00Z,28.9818,-94.9186,4.0,5.514798274,25.6819472,6.72,'11111222,11111222,11111222' 
TABS,ioos:station:wmo:42043:1,2010-03-03T08:30:00Z,28.9818,-94.9186,4.0,5.568051724,37.11656343,6.96,'11111222,11111222,11111222' 
TABS,ioos:station:wmo:42043:1,2010-03-03T09:00:00Z,28.9818,-94.9186,4.0,4.662199052,46.82487631,6.48,'11111222,11111222,11111222' 
TABS,ioos:station:wmo:42043:1,2010-03-03T09:30:00Z,28.9818,-94.9186,4.0,3.876867292,54.34172384,5.05,'11111222,11111222,11111222' 
TABS,ioos:station:wmo:42043:1,2010-03-03T10:00:00Z,28.9818,-94.9186,4.0,3.547393409,60.25476734,4.52,'11111222,11111222,11111222' 
TABS,ioos:station:wmo:42043:1,2010-03-03T10:30:00Z,28.9818,-94.9186,4.0,4.223091285,75.04197856,5.19,'11111222,11111222,11111222' 
TABS,ioos:station:wmo:42043:1,2010-03-03T11:00:00Z,28.9818,-94.9186,4.0,4.314533578,70.22074053,5.34,'11111222,11111222,11111222' 
TABS,ioos:station:wmo:42043:1,2010-03-03T11:30:00Z,28.9818,-94.9186,4.0,4.070036855,76.6462401,5.15,'11111222,11111222,11111222' 
TABS,ioos:station:wmo:42043:1,2010-03-03T12:00:00Z,28.9818,-94.9186,4.0,4.560405684,73.8298712,5.44,'11111222,11111222,11111222' 
TABS,ioos:station:wmo:42043:1,2010-03-03T12:30:00Z,28.9818,-94.9186,4.0,4.510698394,78.49038466,5.45,'11111222,11111222,11111222' 
TABS,ioos:station:wmo:42043:1,2010-03-03T13:00:00Z,28.9818,-94.9186,4.0,4.048826991,72.90729426,4.94,'11111222,11111222,11111222' 
TABS,ioos:station:wmo:42043:1,2010-03-03T13:30:00Z,28.9818,-94.9186,4.0,3.641277248,69.92241578,4.79,'11111222,11111222,11111222' 
TABS,ioos:station:wmo:42043:1,2010-03-03T14:00:00Z,28.9818,-94.9186,4.0,4.190047732,71.78088233,5.16,'11111222,11111222,11111222' 
TABS,ioos:station:wmo:42043:1,2010-03-03T14:30:00Z,28.9818,-94.9186,4.0,4.146625134,72.74450843,5.14,'11111222,11111222,11111222' 
TABS,ioos:station:wmo:42043:1,2010-03-03T15:00:00Z,28.9818,-94.9186,4.0,3.166591227,73.10973573,4.28,'11111222,11111222,11111222' 
TABS,ioos:station:wmo:42043:1,2010-03-03T15:30:00Z,28.9818,-94.9186,4.0,2.675070093,64.77571467,3.48,'11111222,11111222,11111222' 
TABS,ioos:station:wmo:42043:1,2010-03-03T16:00:00Z,28.9818,-94.9186,4.0,1.957600572,74.89851623,2.92,'11111222,11111222,11111222' 
TABS,ioos:station:wmo:42043:1,2010-03-03T16:30:00Z,28.9818,-94.9186,4.0,1.361249426,77.69906897,2.27,'11111222,11111222,11111222' 
TABS,ioos:station:wmo:42043:1,2010-03-03T17:00:00Z,28.9818,-94.9186,4.0,1.23458495,54.89358185,2.12,'11111222,11111222,11111222' 
TABS,ioos:station:wmo:42043:1,2010-03-03T17:30:00Z,28.9818,-94.9186,4.0,0.831925477,64.35863322,2.17,'11111222,11111222,11111222' 
TABS,ioos:station:wmo:42043:1,2010-03-03T18:00:00Z,28.9818,-94.9186,4.0,1.168246549,51.95262552,1.74,'11111222,11111222,11111222' 
TABS,ioos:station:wmo:42043:1,2010-03-03T18:30:00Z,28.9818,-94.9186,4.0,1.362974688,86.2134759,2.05,'11111222,11111222,11111222' 
TABS,ioos:station:wmo:42043:1,2010-03-03T19:00:00Z,28.9818,-94.9186,4.0,1.664812302,118.7206806,2.63,'11111222,11111222,11111222' 
TABS,ioos:station:wmo:42043:1,2010-03-03T19:30:00Z,28.9818,-94.9186,4.0,2.210701246,131.3325362,3.45,'11111222,11111222,11111222' 
TABS,ioos:station:wmo:42043:1,2010-03-03T20:00:00Z,28.9818,-94.9186,4.0,2.483646513,132.8792243,3.37,'11111222,11111222,11111222' 
TABS,ioos:station:wmo:42043:1,2010-03-03T20:30:00Z,28.9818,-94.9186,4.0,2.532429663,136.6003367,3.34,'11111222,11111222,11111222' 
TABS,ioos:station:wmo:42043:1,2010-03-03T21:00:00Z,28.9818,-94.9186,4.0,2.434460926,132.6698023,3.14,'11111222,11111222,11111222' 
TABS,ioos:station:wmo:42043:1,2010-03-03T21:30:00Z,28.9818,-94.9186,4.0,2.757752708,135.2941369,3.8,'11111222,11111222,11111222' 
TABS,ioos:station:wmo:42043:1,2010-03-03T22:00:00Z,28.9818,-94.9186,4.0,3.124179892,131.4967922,3.87,'11111222,11111222,11111222' 
TABS,ioos:station:wmo:42043:1,2010-03-03T22:30:00Z,28.9818,-94.9186,4.0,3.482441672,137.5606106,4.23,'11111222,11111222,11111222' 
TABS,ioos:station:wmo:42043:1,2010-03-03T23:00:00Z,28.9818,-94.9186,4.0,3.430932818,146.7733939,4.37,'11111222,11111222,11111222' 
TABS,ioos:station:wmo:42043:1,2010-03-03T23:30:00Z,28.9818,-94.9186,4.0,3.444488351,144.0952171,4.3,'11111222,11111222,11111222' 
TABS,ioos:station:wmo:42043:1,2010-03-04T00:00:00Z,28.9818,-94.9186,4.0,3.404732001,159.5426932,4.2,'11111222,11111222,11111222' 
TABS,ioos:station:wmo:42043:1,2010-03-04T00:30:00Z,28.9818,-94.9186,4.0,3.070586263,161.3882848,4.17,'11111222,11111222,11111222' 
TABS,ioos:station:wmo:42043:1,2010-03-04T01:00:00Z,28.9818,-94.9186,4.0,3.312174512,163.1518845,4.16,'11111222,11111222,11111222' 
TABS,ioos:station:wmo:42043:1,2010-03-04T01:30:00Z,28.9818,-94.9186,4.0,3.383252873,155.5563128,3.91,'11111222,11111222,11111222' 
TABS,ioos:station:wmo:42043:1,2010-03-04T02:00:00Z,28.9818,-94.9186,4.0,3.208769234,165.747464,4.07,'11111222,11111222,11111222' 
TABS,ioos:station:wmo:42043:1,2010-03-04T02:30:00Z,28.9818,-94.9186,4.0,2.995363083,166.288749,3.61,'11111222,11111222,11111222' 
TABS,ioos:station:wmo:42043:1,2010-03-04T03:00:00Z,28.9818,-94.9186,4.0,2.910274901,180.7877299,3.77,'11111222,11111222,11111222' 
TABS,ioos:station:wmo:42043:1,2010-03-04T03:30:00Z,28.9818,-94.9186,4.0,3.000966511,188.2382968,3.88,'11111222,11111222,11111222' 
TABS,ioos:station:wmo:42043:1,2010-03-04T04:00:00Z,28.9818,-94.9186,4.0,3.098935301,192.1078524,3.77,'11111222,11111222,11111222' 
TABS,ioos:station:wmo:42043:1,2010-03-04T04:30:00Z,28.9818,-94.9186,4.0,3.462383572,189.9794088,4.76,'11111222,11111222,11111222' 
TABS,ioos:station:wmo:42043:1,2010-03-04T05:00:00Z,28.9818,-94.9186,4.0,2.91317696,155.4586499,3.69,'11111222,11111222,11111222' 
TABS,ioos:station:wmo:42043:1,2010-03-04T05:30:00Z,28.9818,-94.9186,4.0,2.986854533,168.803165,3.48,'11111222,11111222,11111222' 
TABS,ioos:station:wmo:42043:1,2010-03-04T06:00:00Z,28.9818,-94.9186,4.0,3.094382006,188.5492673,3.72,'11111222,11111222,11111222' 
TABS,ioos:station:wmo:42043:1,2010-03-04T06:30:00Z,28.9818,-94.9186,4.0,3.116360056,190.9134884,4.0,'11111222,11111222,11111222' 
TABS,ioos:station:wmo:42043:1,2010-03-04T07:00:00Z,28.9818,-94.9186,4.0,3.320512009,193.4086634,4.09,'11111222,11111222,11111222' 
TABS,ioos:station:wmo:42043:1,2010-03-04T07:30:00Z,28.9818,-94.9186,4.0,3.120592892,192.2103511,4.03,'11111222,11111222,11111222' 
TABS,ioos:station:wmo:42043:1,2010-03-04T08:00:00Z,28.9818,-94.9186,4.0,2.443644819,195.9133624,3.0,'11111222,11111222,11111222' 
TABS,ioos:station:wmo:42043:1,2010-03-04T08:30:00Z,28.9818,-94.9186,4.0,1.753539278,194.1949149,2.36,'11111222,11111222,11111222' 
TABS,ioos:station:wmo:42043:1,2010-03-04T09:00:00Z,28.9818,-94.9186,4.0,1.921665944,182.3861489,2.44,'11111222,11111222,11111222' 
TABS,ioos:station:wmo:42043:1,2010-03-04T09:30:00Z,28.9818,-94.9186,4.0,1.958800653,163.6932432,2.83,'11111222,11111222,11111222' 
TABS,ioos:station:wmo:42043:1,2010-03-04T10:00:00Z,28.9818,-94.9186,4.0,1.806017719,127.124032,2.55,'11111222,11111222,11111222' 
TABS,ioos:station:wmo:42043:1,2010-03-04T10:30:00Z,28.9818,-94.9186,4.0,2.075764919,115.0839563,2.44,'11111222,11111222,11111222' 
TABS,ioos:station:wmo:42043:1,2010-03-04T11:00:00Z,28.9818,-94.9186,4.0,1.926032191,105.0467776,2.19,'11111222,11111222,11111222' 
TABS,ioos:station:wmo:42043:1,2010-03-04T11:30:00Z,28.9818,-94.9186,4.0,2.143944962,100.2096311,2.41,'11111222,11111222,11111222' 
TABS,ioos:station:wmo:42043:1,2010-03-04T12:00:00Z,28.9818,-94.9186,4.0,3.184964678,78.40743078,3.95,'11111222,11111222,11111222' 
TABS,ioos:station:wmo:42043:1,2010-03-04T12:30:00Z,28.9818,-94.9186,4.0,3.36252881,85.05199179,3.86,'11111222,11111222,11111222' 
TABS,ioos:station:wmo:42043:1,2010-03-04T13:00:00Z,28.9818,-94.9186,4.0,3.993619912,79.75891754,4.85,'11111222,11111222,11111222' 
TABS,ioos:station:wmo:42043:1,2010-03-04T13:30:00Z,28.9818,-94.9186,4.0,3.222436966,108.8289117,5.01,'11111222,11111222,11111222' 
TABS,ioos:station:wmo:42043:1,2010-03-04T14:00:00Z,28.9818,-94.9186,4.0,4.510698394,124.888299,5.21,'11111222,11111222,11111222' 
TABS,ioos:station:wmo:42043:1,2010-03-04T14:30:00Z,28.9818,-94.9186,4.0,4.670588828,123.8265036,5.35,'11111222,11111222,11111222' 
TABS,ioos:station:wmo:42043:1,2010-03-04T15:00:00Z,28.9818,-94.9186,4.0,4.213846224,120.5210462,5.29,'11111222,11111222,11111222' 
TABS,ioos:station:wmo:42043:1,2010-03-04T15:30:00Z,28.9818,-94.9186,4.0,3.613543967,120.6106006,4.3,'11111222,11111222,11111222' 
TABS,ioos:station:wmo:42043:1,2010-03-04T16:00:00Z,28.9818,-94.9186,4.0,3.683476619,124.3806852,4.39,'11111222,11111222,11111222' 
TABS,ioos:station:wmo:42043:1,2010-03-04T16:30:00Z,28.9818,-94.9186,4.0,3.533624202,117.6531713,4.19,'11111222,11111222,11111222' 
TABS,ioos:station:wmo:42043:1,2010-03-04T17:00:00Z,28.9818,-94.9186,4.0,3.67360858,118.4489972,4.55,'11111222,11111222,11111222' 
TABS,ioos:station:wmo:42043:1,2010-03-04T17:30:00Z,28.9818,-94.9186,4.0,4.795258074,110.892049,5.71,'11111222,11111222,11111222' 
TABS,ioos:station:wmo:42043:1,2010-03-04T18:00:00Z,28.9818,-94.9186,4.0,5.268415322,111.2565078,5.91,'11111222,11111222,11111222' 
TABS,ioos:station:wmo:42043:1,2010-03-04T18:30:00Z,28.9818,-94.9186,4.0,4.894006539,115.1516363,5.67,'11111222,11111222,11111222' 